Weather History for Philip, SD

Change the Weather History Date:

Thursday, October 20, 2011

  Actual Average Record
Temperature  
Mean Temperature 41 °F 47 °F  
Max Temperature 62 °F 61 °F 84 °F (1961)
Min Temperature 20 °F 32 °F 20 °F (1987)
Degree Days  
Heating Degree Days 24 18  
Month to date heating degree days 217 285  
Since 1 July heating degree days 336 471  
Cooling Degree Days 0 0  
Month to date cooling degree days 36 0  
Year to date cooling degree days 837 814  
Moisture  
Dew Point 25 °F    
Average Humidity 56    
Maximum Humidity 84    
Minimum Humidity 27    
Precipitation  
Precipitation 0.00 in 0.05 in 0.38 in (1981)
Month to date precipitation 0.26 1.01  
Year to date precipitation 15.34 15.88  
Sea Level Pressure  
Sea Level Pressure 30.02 in    
Wind  
Wind Speed 4 mph (ESE)    
Max Wind Speed 12 mph    
Max Gust Speed 14 mph    
Visibility 10 miles    
Events      
T = Trace of Precipitation, MM = Missing Value Source: NWS Daily Summary

Daily Weather History Graph

Daily Weather History Graph

Search for Another Location

Airport:

Trip Planner

Search our weather history database for the weather conditions in past years. The results will help you decide how hot, cold, wet, or windy it might be!

Date:

Astronomy

Oct. 20, 2011 Rise Set
Actual Time 7:07 AM MDT 5:54 PM MDT
Civil Twilight 6:37 AM MDT 6:23 PM MDT
Nautical Twilight 6:04 AM MDT 6:57 PM MDT
Astronomical Twilight 5:30 AM MDT 7:30 PM MDT
Moon No Moon Rise 2:18 PM MDT (10/20)
Length of Visible Light 11h 46m
Length of Day
10h 47m
Last Quarter, 43% of the Moon is Illuminated
Oct 20
Last Quarter
Oct 26
New
Nov 2
First Quarter
Nov 10
Full
Nov 18
Last Quarter

Hourly Weather History & Observations

Time (MDT) Temp. Windchill Dew Point Humidity Pressure Visibility Wind Dir Wind Speed Gust Speed Precip Events Conditions
12:55 AM 26.1 °F - 18.0 °F 71% 30.11 in 10.0 mi Calm Calm - N/A   Clear
1:55 AM 23.0 °F 15.8 °F 17.1 °F 78% 30.11 in 10.0 mi East 5.8 mph - N/A   Clear
2:55 AM 21.9 °F 14.5 °F 17.1 °F 82% 30.09 in 10.0 mi East 5.8 mph - N/A   Clear
3:55 AM 23.0 °F 17.0 °F 18.0 °F 81% 30.08 in 10.0 mi East 4.6 mph - N/A   Clear
4:55 AM 21.9 °F 13.4 °F 17.1 °F 82% 30.08 in 10.0 mi East 6.9 mph - N/A   Clear
5:55 AM 21.0 °F 13.4 °F 17.1 °F 85% 30.08 in 10.0 mi East 5.8 mph - N/A   Clear
6:55 AM 23.0 °F 18.4 °F 17.1 °F 78% 30.08 in 10.0 mi East 3.5 mph - N/A   Clear
7:55 AM 26.1 °F 20.5 °F 21.0 °F 81% 30.08 in 10.0 mi East 4.6 mph - N/A   Clear
8:55 AM 32.0 °F 28.7 °F 25.0 °F 75% 30.08 in 10.0 mi ESE 3.5 mph - N/A   Clear
9:55 AM 42.1 °F 38.4 °F 27.0 °F 55% 30.06 in 10.0 mi SSE 5.8 mph - N/A   Clear
10:55 AM 46.9 °F - 28.0 °F 48% 30.03 in 10.0 mi ESE 5.8 mph - N/A   Clear
11:55 AM 51.1 °F - 28.0 °F 41% 30.02 in 10.0 mi SSW 6.9 mph - N/A   Clear
12:55 PM 54.0 °F - 28.9 °F 38% 29.99 in 10.0 mi SSE 3.5 mph - N/A   Clear
1:55 PM 57.9 °F - 28.9 °F 33% 29.96 in 10.0 mi Calm Calm - N/A   Clear
2:55 PM 61.0 °F - 28.9 °F 30% 29.95 in 10.0 mi Variable 5.8 mph - N/A   Clear
3:55 PM 62.1 °F - 28.9 °F 29% 29.94 in 10.0 mi Calm Calm - N/A   Clear
4:55 PM 62.1 °F - 30.0 °F 30% 29.95 in 10.0 mi Calm Calm - N/A   Clear
5:55 PM 55.0 °F - 28.9 °F 37% 29.96 in 10.0 mi ESE 4.6 mph - N/A   Clear
6:55 PM 50.0 °F - 28.9 °F 44% 29.98 in 10.0 mi East 3.5 mph - N/A   Clear
8:55 PM 44.1 °F - 30.0 °F 58% 29.99 in 10.0 mi Calm Calm - N/A   Clear
9:55 PM 43.0 °F 40.3 °F 30.9 °F 62% 29.99 in 10.0 mi West 4.6 mph - N/A   Clear
10:55 PM 42.1 °F - 30.9 °F 65% 29.97 in 10.0 mi Calm Calm - N/A   Clear
11:55 PM 37.9 °F 34.4 °F 30.0 °F 73% 29.97 in 10.0 mi West 4.6 mph - N/A   Clear